Regional Weather Roundup
Issued by NWS

Home | Current Version | Previous Version | Text Only | Print | Product List | Glossary On
Versions: 1 2 3 4 5 6 7 8 9 10 11 12 13 14 15 16 17 18 19 20 21 22 23 24 25 26 27 28 29 30 31 32 33 34 35 36 37 38 39 40 41 42 43 44 45 46 47 48 49 50
027
ASUS43 KDTX 230101
RWRMI
MICHIGAN HOURLY REGIONAL WEATHER ROUNDUP
NATIONAL WEATHER SERVICE DETROIT/PONTIAC MI
900 PM EDT SAT APR 22 2017

NOTE: "FAIR" INDICATES FEW OR NO CLOUDS BELOW 12,000 FEET WITH NO
SIGNIFICANT WEATHER AND/OR OBSTRUCTION TO VISIBILITY.

MIZ047>049-052>055-059>063-066>070-074>076-081>083-230200-
SOUTHEAST LOWER MICHIGAN

CITY           SKY/WX    TMP DP  RH WIND       PRES   REMARKS
ADRIAN         CLEAR     50  37  61 SE6       30.12S
ALMA           CLEAR     53  35  51 S8        30.12S
ANN ARBOR      CLEAR     50  35  56 CALM      30.11S
BAD AXE        CLEAR     45  30  56 CALM      30.13R
CARO           CLEAR     47  36  65 CALM      30.12R
DETROIT CITY   CLEAR     49  29  46 SE5       30.12S
DETROIT        PTCLDY    52  33  48 SE5       30.13R
FLINT          CLEAR     51  27  39 N3        30.12S
GROSSE ILE     CLOUDY    49  33  54 E5        30.11S
HILLSDALE      CLEAR     54  30  40 N3        30.11S
HOWELL         CLEAR     52  25  35 CALM      30.12R

CITY           SKY/WX    TMP DP  RH WIND       PRES   REMARKS
JACKSON        CLEAR     53  33  46 N5        30.12S
LAMBERTVILLE   CLOUDY    50  35  56 CALM      30.12S
LANSING        CLEAR     52  26  36 CALM      30.13S
LAPEER         FAIR      49  31  51 S5        30.12S
MASON          CLEAR     53  32  45 CALM      30.13S
MONROE         CLOUDY    50  37  59 E8        30.11S
MT. CLEMENS    PTCLDY    47  37  67 E10       30.11R
PONTIAC        MOCLDY    52  27  38 NE3       30.11R
PORT HOPE        N/A     44  33  65 SE3       30.11S
PORT HURON     CLEAR     39  30  70 CALM      30.14S
TRI CITIES     CLEAR     54  37  52 S3        30.12F
MIDLAND        FAIR      55  31  40 SE3       30.11R
TROY           CLEAR     55  28  36 N3        30.13S
SAGINAW HB     CLEAR     52  34  50 SE3       30.12R
$$
MIZ043>046-050>051-056>058-064>065-071>073-077>080-230200-
SOUTHWEST LOWER MICHIGAN

CITY           SKY/WX    TMP DP  RH WIND       PRES   REMARKS
BATTLE CREEK   CLEAR     54  28  36 NE5       30.13S
BENTON HARBOR  CLEAR     47  28  47 VRB6      30.14F
BIG RAPIDS     CLEAR     55  21  26 NW7       30.11S
COLDWATER      CLEAR     53  29  39 N5        30.12R
FREMONT        FAIR      49  26  41 NW8       30.13R
HOLLAND        CLEAR     50  26  39 NW6       30.14S
GRAND RAPIDS   PTCLDY    54  33  45 W7        30.13R
IONIA          FAIR      55  33  42 S5        30.12R
KALAMAZOO      CLEAR     56  27  32 NE3       30.13S
LUDINGTON      CLEAR     46  28  49 CALM      30.13S
MARSHALL       CLEAR     53  28  37 CALM      30.12S
MOUNT PLEASANT CLEAR     56  35  45 SE6       30.10S
MUSKEGON       PTCLDY    50  26  39 NW5       30.14S
SOUTH HAVEN    CLEAR     47  26  45 N5        30.14F
$$
MIZ016>042-230200-
NORTHERN LOWER MICHIGAN

CITY           SKY/WX    TMP DP  RH WIND       PRES   REMARKS
ALPENA         CLEAR     44  28  53 CALM      30.12S
BEAVER ISLAND  CLEAR     49  20  32 SW8       30.09S
BELLAIRE       CLEAR     46  33  61 CALM      30.12S
CADILLAC       CLEAR     50  23  34 N3        30.12R
CHARLEVOIX     CLEAR     51  24  34 S3        30.13S
FRANKFORT      CLEAR     46  26  45 CALM      30.12S
GAYLORD        CLEAR     52  22  30 W3        30.11S
GRAYLING       CLEAR     50  24  35 CALM      30.12S
HARBOR SPRINGS CLEAR     43  30  60 CALM      30.09F
HOUGHTON LAKE  CLEAR     52  26  36 NW8       30.11R
MANISTEE       CLEAR     47  29  49 CALM      30.13F
OSCODA         CLEAR     47  23  37 CALM      30.12S
PELLSTON       CLEAR     48  18  30 CALM      30.09F
ROGERS CITY    CLEAR     47  31  54 CALM      30.11S
TRAVERSE CITY  PTCLDY    51  30  44 S3        30.10F
$$
MIZ007>008-015-230200-
EASTERN UPPER MICHIGAN

CITY           SKY/WX    TMP DP  RH WIND       PRES   REMARKS
KINROSS        PTCLDY    49  25  39 SW6       30.08R
MACKINAC ISLAN CLEAR     45  27  49 SW7       30.08S
NEWBERRY       CLEAR     47  27  44 SW10      30.07R
S. S. MARIE    PTCLDY    54  29  38 SW6       30.06R
MUNISING         N/A     55  28  35 S6        30.05R
$$
MIZ004>006-011>014-085-230200-
CENTRAL UPPER MICHIGAN

CITY           SKY/WX    TMP DP  RH WIND       PRES   REMARKS
MANISTIQUE     CLEAR     40  33  77 S8        30.07F WCI  34
ESCANABA       CLEAR     47  33  58 S8        30.06S
MENOMINEE      CLEAR     57  31  37 SW12      30.07S
SAWYER-GWINN   CLEAR     57  30  35 NE3       30.04S
$$
MIZ001>003-009>011-084-230200-
WESTERN UPPER MICHIGAN

CITY           SKY/WX    TMP DP  RH WIND       PRES   REMARKS
IRON MOUNTAIN  CLEAR     61  25  25 SW6       30.03S
HOUGHTON       PTCLDY    51  33  50 NW20G30   30.01R
COPPER HARBOR    N/A     45  37  73 N9G21     30.04R
IRONWOOD       CLEAR     60  32  34 W9        30.04S
$$

ABBREVIATIONS USED IN REMARKS
   TC - TEMPERATURE IN CELSIUS
  WCI - WIND CHILL INDEX
   HX - HEAT INDEX
  VSB - VISIBILITY





USA.gov is the U.S. government's official web portal to all federal, state and local government web resources and services.